TimeEST,TemperatureF,Dew PointF,Humidity,Sea Level PressureIn,VisibilityMPH,Wind Direction,Wind SpeedMPH,Gust SpeedMPH,PrecipitationIn,Events,Conditions,WindDirDegrees,DateUTC
12:15 AM,40.5,23.7,51,30.37,10.0,Calm,Calm,-,N/A,,Scattered Clouds,0,2012-11-29 05:15:00
12:35 AM,32.0,24.8,75,30.37,10.0,Calm,Calm,-,N/A,,Clear,0,2012-11-29 05:35:00
12:55 AM,32.2,24.3,73,30.37,10.0,Calm,Calm,-,N/A,,Clear,0,2012-11-29 05:55:00
1:15 AM,31.1,24.8,77,30.38,10.0,Calm,Calm,-,N/A,,Clear,0,2012-11-29 06:15:00
1:35 AM,29.3,23.2,78,30.38,10.0,Calm,Calm,-,N/A,,Clear,0,2012-11-29 06:35:00
1:55 AM,29.5,24.1,80,30.39,10.0,Calm,Calm,-,N/A,,Clear,0,2012-11-29 06:55:00
2:15 AM,29.1,23.5,80,30.39,10.0,Calm,Calm,-,N/A,,Clear,0,2012-11-29 07:15:00
2:35 AM,28.2,23.5,83,30.39,10.0,Calm,Calm,-,N/A,,Clear,0,2012-11-29 07:35:00
2:55 AM,27.3,23.0,84,30.38,10.0,Calm,Calm,-,N/A,,Clear,0,2012-11-29 07:55:00
3:15 AM,27.1,22.6,83,30.38,10.0,Calm,Calm,-,N/A,,Clear,0,2012-11-29 08:15:00
3:35 AM,27.1,23.0,84,30.38,10.0,Calm,Calm,-,N/A,,Clear,0,2012-11-29 08:35:00
3:55 AM,26.2,22.5,86,30.38,7.0,Calm,Calm,-,N/A,,Clear,0,2012-11-29 08:55:00
4:15 AM,26.4,23.0,87,30.39,7.0,Calm,Calm,-,N/A,,Clear,0,2012-11-29 09:15:00
4:35 AM,25.3,22.1,87,30.38,7.0,Calm,Calm,-,N/A,,Clear,0,2012-11-29 09:35:00
4:55 AM,25.7,22.3,87,30.39,7.0,Calm,Calm,-,N/A,,Clear,0,2012-11-29 09:55:00
5:15 AM,25.5,22.3,88,30.39,7.0,Calm,Calm,-,N/A,,Clear,0,2012-11-29 10:15:00
5:35 AM,25.2,22.1,88,30.40,7.0,Calm,Calm,-,N/A,,Clear,0,2012-11-29 10:35:00
5:55 AM,25.5,22.1,87,30.40,7.0,Calm,Calm,-,N/A,,Clear,0,2012-11-29 10:55:00
6:15 AM,25.5,22.5,88,30.39,7.0,Calm,Calm,-,N/A,,Clear,0,2012-11-29 11:15:00
6:35 AM,25.9,22.8,88,30.39,7.0,Calm,Calm,-,N/A,,Clear,0,2012-11-29 11:35:00
6:55 AM,26.8,23.9,89,30.40,7.0,Calm,Calm,-,N/A,,Clear,0,2012-11-29 11:55:00
7:15 AM,27.3,24.3,88,30.41,7.0,Calm,Calm,-,N/A,,Clear,0,2012-11-29 12:15:00
7:35 AM,27.5,24.4,88,30.41,5.0,Calm,Calm,-,N/A,,Clear,0,2012-11-29 12:35:00
7:55 AM,28.0,25.2,89,30.42,5.0,Calm,Calm,-,N/A,,Clear,0,2012-11-29 12:55:00
8:15 AM,28.9,25.9,88,30.43,4.0,Calm,Calm,-,N/A,,Clear,0,2012-11-29 13:15:00
8:35 AM,29.3,26.2,88,30.44,5.0,Calm,Calm,-,N/A,,Clear,0,2012-11-29 13:35:00
8:55 AM,30.2,26.6,86,30.44,5.0,Calm,Calm,-,N/A,,Clear,0,2012-11-29 13:55:00
9:15 AM,31.5,27.5,85,30.44,5.0,Calm,Calm,-,N/A,,Clear,0,2012-11-29 14:15:00
9:35 AM,34.2,28.8,81,30.44,7.0,Calm,Calm,-,N/A,,Clear,0,2012-11-29 14:35:00
9:55 AM,36.1,29.1,76,30.44,7.0,Calm,Calm,-,N/A,,Clear,0,2012-11-29 14:55:00
10:15 AM,39.6,29.1,66,30.44,10.0,Calm,Calm,-,N/A,,Clear,0,2012-11-29 15:15:00
10:35 AM,42.1,28.8,59,30.44,10.0,Calm,Calm,-,N/A,,Clear,0,2012-11-29 15:35:00
11:15 AM,43.5,22.8,44,30.42,10.0,Calm,Calm,-,N/A,,Clear,0,2012-11-29 16:15:00
11:35 AM,45.3,22.3,40,30.41,10.0,Calm,Calm,-,N/A,,Clear,0,2012-11-29 16:35:00
11:55 AM,46.4,22.1,38,30.39,10.0,Calm,Calm,-,N/A,,Clear,0,2012-11-29 16:55:00
12:15 PM,47.3,20.1,34,30.39,10.0,Calm,Calm,-,N/A,,Clear,0,2012-11-29 17:15:00
12:35 PM,48.2,19.9,33,30.38,10.0,Calm,Calm,-,N/A,,Clear,0,2012-11-29 17:35:00
12:55 PM,49.5,19.8,31,30.37,10.0,Calm,Calm,-,N/A,,Clear,0,2012-11-29 17:55:00
1:15 PM,50.4,19.8,30,30.35,10.0,Calm,Calm,-,N/A,,Clear,0,2012-11-29 18:15:00
1:35 PM,50.9,19.4,29,30.34,10.0,Calm,Calm,-,N/A,,Clear,0,2012-11-29 18:35:00
1:55 PM,51.6,19.9,29,30.34,10.0,Calm,Calm,-,N/A,,Clear,0,2012-11-29 18:55:00
2:15 PM,51.8,19.8,28,30.32,10.0,Calm,Calm,-,N/A,,Clear,0,2012-11-29 19:15:00
2:35 PM,52.3,19.0,27,30.32,10.0,Calm,Calm,-,N/A,,Clear,0,2012-11-29 19:35:00
2:55 PM,52.3,19.4,27,30.31,10.0,Calm,Calm,-,N/A,,Clear,0,2012-11-29 19:55:00
3:15 PM,51.8,18.9,27,30.31,10.0,Calm,Calm,-,N/A,,Clear,0,2012-11-29 20:15:00
3:35 PM,51.8,18.9,27,30.31,10.0,Calm,Calm,-,N/A,,Clear,0,2012-11-29 20:35:00
3:55 PM,51.4,18.7,28,30.30,10.0,Calm,Calm,-,N/A,,Clear,0,2012-11-29 20:55:00
4:15 PM,50.2,18.7,29,30.30,10.0,Calm,Calm,-,N/A,,Clear,0,2012-11-29 21:15:00
4:35 PM,45.1,25.2,46,30.30,10.0,Calm,Calm,-,N/A,,Clear,0,2012-11-29 21:35:00
4:55 PM,39.0,24.6,56,30.30,10.0,Calm,Calm,-,N/A,,Clear,0,2012-11-29 21:55:00
5:15 PM,37.0,24.8,61,30.30,10.0,Calm,Calm,-,N/A,,Clear,0,2012-11-29 22:15:00
5:35 PM,37.2,24.6,60,30.31,10.0,Calm,Calm,-,N/A,,Clear,0,2012-11-29 22:35:00
5:55 PM,34.0,25.3,71,30.31,10.0,Calm,Calm,-,N/A,,Clear,0,2012-11-29 22:55:00
6:15 PM,34.5,25.7,70,30.31,10.0,Calm,Calm,-,N/A,,Clear,0,2012-11-29 23:15:00
6:35 PM,33.1,24.4,71,30.31,10.0,Calm,Calm,-,N/A,,Clear,0,2012-11-29 23:35:00
6:55 PM,33.6,25.0,71,30.31,10.0,Calm,Calm,-,N/A,,Clear,0,2012-11-29 23:55:00
7:15 PM,32.2,25.5,76,30.32,10.0,Calm,Calm,-,N/A,,Clear,0,2012-11-30 00:15:00
7:35 PM,31.6,25.0,76,30.32,10.0,Calm,Calm,-,N/A,,Clear,0,2012-11-30 00:35:00
7:55 PM,31.3,25.3,79,30.32,10.0,Calm,Calm,-,N/A,,Clear,0,2012-11-30 00:55:00
8:15 PM,30.6,25.0,80,30.32,10.0,Calm,Calm,-,N/A,,Clear,0,2012-11-30 01:15:00
8:35 PM,30.0,24.4,80,30.32,10.0,Calm,Calm,-,N/A,,Clear,0,2012-11-30 01:35:00
8:55 PM,28.6,23.4,81,30.32,10.0,Calm,Calm,-,N/A,,Clear,0,2012-11-30 01:55:00
9:15 PM,29.1,24.6,83,30.32,10.0,Calm,Calm,-,N/A,,Clear,0,2012-11-30 02:15:00
9:35 PM,27.3,22.8,83,30.32,10.0,Calm,Calm,-,N/A,,Clear,0,2012-11-30 02:35:00
9:55 PM,28.2,23.9,84,30.32,10.0,Calm,Calm,-,N/A,,Clear,0,2012-11-30 02:55:00
10:15 PM,26.8,22.8,85,30.33,10.0,Calm,Calm,-,N/A,,Clear,0,2012-11-30 03:15:00
10:35 PM,27.0,23.4,86,30.32,10.0,Calm,Calm,-,N/A,,Clear,0,2012-11-30 03:35:00
10:55 PM,26.6,22.6,85,30.32,10.0,Calm,Calm,-,N/A,,Clear,0,2012-11-30 03:55:00
11:15 PM,26.4,22.5,85,30.32,10.0,Calm,Calm,-,N/A,,Clear,0,2012-11-30 04:15:00
11:35 PM,25.7,22.1,86,30.32,10.0,Calm,Calm,-,N/A,,Clear,0,2012-11-30 04:35:00
11:55 PM,26.6,23.5,88,30.32,10.0,Calm,Calm,-,N/A,,Clear,0,2012-11-30 04:55:00